When you browse on this site, cookies collect data to enhance your experience and personalize the content and advertising you see.
Visit our Privacy Policy to learn more. By continuing to use the site, you agree to this use of cookies and data.
  • In Hungary
  • List of Countries
  • For 7 days
  • Water Temperature
  • Weather Map
  • News
  • Weather Widgets
  • user-avatar
    Login

    Hourly Weather Hamhŭng

    Today, 12 November, Tuesday

    Time Temperature Precipitation Wind Pressure Humidity
    00:00 +7°C° 0 mm 3 mps 760 mmHg 64%
    01:00 +7°C° 0 mm 3 mps 760 mmHg 63%
    02:00 +6°C° 0 mm 2 mps 760 mmHg 63%
    03:00 +5°C° 0 mm 3 mps 760 mmHg 61%
    04:00 +6°C° 0 mm 2 mps 761 mmHg 59%
    05:00 +6°C° 0 mm 2 mps 761 mmHg 57%
    06:00 +5°C° 0 mm 2 mps 762 mmHg 56%
    07:00 +8°C° 0 mm 1 mps 762 mmHg 51%
    08:00 +9°C° 0 mm 1 mps 762 mmHg 47%
    09:00 +10°C° 0 mm 1 mps 762 mmHg 41%
    10:00 +11°C° 0 mm 1 mps 762 mmHg 39%
    11:00 +13°C° 0 mm 1 mps 762 mmHg 36%
    12:00 +13°C° 0 mm 0 mps 761 mmHg 33%
    13:00 +13°C° 0 mm 0 mps 761 mmHg 33%
    14:00 +13°C° 0 mm 0 mps 761 mmHg 32%
    15:00 +14°C° 0 mm 0 mps 761 mmHg 31%
    16:00 +12°C° 0 mm 0 mps 761 mmHg 37%
    17:00 +12°C° 0 mm 1 mps 762 mmHg 42%
    18:00 +10°C° 0 mm 1 mps 762 mmHg 47%
    19:00 +10°C° 0 mm 1 mps 762 mmHg 48%
    20:00 +9°C° 0 mm 1 mps 762 mmHg 49%
    21:00 +8°C° 0 mm 2 mps 763 mmHg 51%
    22:00 +8°C° 0 mm 2 mps 763 mmHg 50%
    23:00 +7°C° 0 mm 2 mps 763 mmHg 50%

    Tomorrow, 13 November, Wednesday

    Time Temperature Precipitation Wind Pressure Humidity
    00:00 +7°C° 0 mm 2 mps 763 mmHg 50%
    01:00 +7°C° 0 mm 2 mps 762 mmHg 49%
    02:00 +7°C° 0 mm 2 mps 762 mmHg 48%
    03:00 +7°C° 0 mm 2 mps 761 mmHg 47%
    04:00 +8°C° 0 mm 2 mps 761 mmHg 47%
    05:00 +8°C° 0 mm 2 mps 760 mmHg 47%
    06:00 +9°C° 0 mm 1 mps 759 mmHg 47%
    07:00 +9°C° 0 mm 1 mps 759 mmHg 47%
    08:00 +10°C° 0 mm 1 mps 758 mmHg 47%
    09:00 +11°C° 0 mm 1 mps 757 mmHg 48%
    10:00 +12°C° 0.1 mm 2 mps 756 mmHg 50%
    11:00 +11°C° 0.1 mm 3 mps 755 mmHg 53%
    12:00 +12°C° 0.1 mm 4 mps 754 mmHg 55%
    13:00 +12°C° 0.8 mm 4 mps 753 mmHg 62%
    14:00 +11°C° 0.8 mm 4 mps 752 mmHg 68%
    15:00 +10°C° 0.8 mm 4 mps 752 mmHg 74%
    16:00 +8°C° 0 mm 4 mps 752 mmHg 73%
    17:00 +7°C° 0 mm 4 mps 753 mmHg 72%
    18:00 +6°C° 0 mm 5 mps 753 mmHg 70%
    19:00 +5°C° 0 mm 5 mps 754 mmHg 67%
    20:00 +3°C° 0 mm 6 mps 755 mmHg 63%
    21:00 +3°C° 0 mm 6 mps 756 mmHg 60%
    22:00 +1°C° 0 mm 6 mps 756 mmHg 58%
    23:00 0°C° 0 mm 5 mps 757 mmHg 56%

    Day after tomorrow, 14 November, Thursday

    Time Temperature Precipitation Wind Pressure Humidity
    00:00 -2°C° 0 mm 5 mps 758 mmHg 54%
    01:00 -4°C° 0 mm 5 mps 759 mmHg 51%
    02:00 -4°C° 0 mm 4 mps 759 mmHg 48%
    03:00 -5°C° 0 mm 4 mps 760 mmHg 46%
    04:00 -5°C° 0 mm 4 mps 760 mmHg 43%
    05:00 -7°C° 0 mm 4 mps 761 mmHg 41%
    06:00 -7°C° 0 mm 4 mps 761 mmHg 38%
    07:00 -7°C° 0 mm 4 mps 762 mmHg 34%
    08:00 -7°C° 0 mm 4 mps 763 mmHg 30%
    09:00 -5°C° 0 mm 4 mps 763 mmHg 26%
    10:00 -4°C° 0 mm 4 mps 763 mmHg 23%
    11:00 -3°C° 0 mm 4 mps 763 mmHg 20%
    12:00 -1°C° 0 mm 4 mps 763 mmHg 17%
    13:00 -1°C° 0 mm 4 mps 762 mmHg 17%
    14:00 0°C° 0 mm 4 mps 762 mmHg 18%
    15:00 0°C° 0 mm 4 mps 762 mmHg 19%
    16:00 -1°C° 0 mm 4 mps 762 mmHg 23%
    17:00 -2°C° 0 mm 4 mps 762 mmHg 27%
    18:00 -4°C° 0 mm 3 mps 762 mmHg 32%
    19:00 -4°C° 0 mm 3 mps 763 mmHg 33%
    20:00 -4°C° 0 mm 3 mps 763 mmHg 35%
    21:00 -5°C° 0 mm 3 mps 763 mmHg 36%
    22:00 -5°C° 0 mm 3 mps 763 mmHg 38%
    23:00 -4°C° 0 mm 2 mps 762 mmHg 39%

    15 November, Friday

    Time Temperature Precipitation Wind Pressure Humidity
    00:00 -4°C° 0 mm 2 mps 762 mmHg 40%
    01:00 -4°C° 0 mm 2 mps 761 mmHg 44%
    02:00 -4°C° 0 mm 2 mps 761 mmHg 48%
    03:00 -4°C° 0 mm 2 mps 760 mmHg 52%
    04:00 -4°C° 0.1 mm 2 mps 759 mmHg 58%
    05:00 -3°C° 0.1 mm 2 mps 759 mmHg 64%
    06:00 -3°C° 0.1 mm 2 mps 759 mmHg 70%
    07:00 -2°C° 0 mm 2 mps 759 mmHg 67%
    08:00 +2°C° 0 mm 1 mps 759 mmHg 65%
    09:00 +3°C° 0 mm 1 mps 759 mmHg 62%
    10:00 +5°C° 0 mm 1 mps 759 mmHg 56%
    11:00 +7°C° 0 mm 1 mps 759 mmHg 50%
    12:00 +10°C° 0 mm 1 mps 758 mmHg 44%
    13:00 +9°C° 0 mm 2 mps 758 mmHg 40%
    14:00 +10°C° 0 mm 2 mps 758 mmHg 37%
    15:00 +10°C° 0 mm 3 mps 758 mmHg 33%
    16:00 +8°C° 0 mm 3 mps 758 mmHg 37%
    17:00 +5°C° 0 mm 3 mps 759 mmHg 41%
    18:00 +3°C° 0 mm 3 mps 759 mmHg 45%
    19:00 +2°C° 0 mm 3 mps 760 mmHg 46%
    20:00 +1°C° 0 mm 3 mps 760 mmHg 47%
    21:00 0°C° 0 mm 3 mps 761 mmHg 48%
    22:00 0°C° 0 mm 3 mps 761 mmHg 47%
    23:00 0°C° 0 mm 3 mps 761 mmHg 45%

    16 November, Saturday

    Time Temperature Precipitation Wind Pressure Humidity
    00:00 0°C° 0 mm 3 mps 762 mmHg 43%
    01:00 0°C° 0 mm 3 mps 762 mmHg 42%
    02:00 0°C° 0 mm 3 mps 762 mmHg 41%
    03:00 0°C° 0 mm 3 mps 762 mmHg 39%
    04:00 0°C° 0 mm 3 mps 762 mmHg 39%
    05:00 0°C° 0 mm 3 mps 762 mmHg 38%
    06:00 0°C° 0 mm 3 mps 762 mmHg 38%
    07:00 +1°C° 0 mm 3 mps 763 mmHg 37%
    08:00 +3°C° 0 mm 2 mps 763 mmHg 35%
    09:00 +4°C° 0 mm 2 mps 763 mmHg 34%
    10:00 +6°C° 0 mm 2 mps 763 mmHg 31%
    11:00 +8°C° 0 mm 2 mps 762 mmHg 28%
    12:00 +11°C° 0 mm 1 mps 762 mmHg 26%
    13:00 +12°C° 0 mm 2 mps 762 mmHg 27%
    14:00 +12°C° 0 mm 2 mps 762 mmHg 28%
    15:00 +12°C° 0 mm 3 mps 762 mmHg 29%
    16:00 +10°C° 0 mm 3 mps 762 mmHg 35%
    17:00 +8°C° 0 mm 3 mps 762 mmHg 41%
    18:00 +5°C° 0 mm 3 mps 763 mmHg 47%
    19:00 +5°C° 0 mm 3 mps 763 mmHg 49%
    20:00 +4°C° 0 mm 3 mps 763 mmHg 50%
    21:00 +5°C° 0 mm 2 mps 763 mmHg 52%
    22:00 +5°C° 0 mm 2 mps 763 mmHg 51%
    23:00 +5°C° 0 mm 2 mps 763 mmHg 50%

    17 November, Sunday

    Time Temperature Precipitation Wind Pressure Humidity
    00:00 +6°C° 0 mm 1 mps 764 mmHg 50%
    01:00 +6°C° 0 mm 1 mps 764 mmHg 50%
    02:00 +6°C° 0 mm 1 mps 764 mmHg 51%
    03:00 +6°C° 0 mm 1 mps 764 mmHg 51%
    04:00 +5°C° 0 mm 1 mps 764 mmHg 52%
    05:00 +5°C° 0 mm 1 mps 764 mmHg 52%
    06:00 +5°C° 0 mm 1 mps 764 mmHg 53%
    07:00 +6°C° 0 mm 1 mps 764 mmHg 51%
    08:00 +7°C° 0 mm 1 mps 764 mmHg 50%
    09:00 +6°C° 0 mm 2 mps 763 mmHg 49%
    10:00 +9°C° 0 mm 1 mps 763 mmHg 49%
    11:00 +10°C° 0 mm 1 mps 762 mmHg 49%
    12:00 +11°C° 0 mm 1 mps 761 mmHg 49%
    13:00 +10°C° 0.4 mm 1 mps 760 mmHg 59%
    14:00 +8°C° 0.4 mm 2 mps 760 mmHg 70%
    15:00 +7°C° 0.4 mm 2 mps 759 mmHg 80%
    16:00 +7°C° 2 mm 2 mps 758 mmHg 84%
    17:00 +6°C° 2 mm 2 mps 757 mmHg 88%
    18:00 +5°C° 2 mm 3 mps 757 mmHg 92%
    19:00 +5°C° 2.8 mm 3 mps 756 mmHg 92%
    20:00 +5°C° 2.8 mm 3 mps 755 mmHg 93%
    21:00 +7°C° 2.8 mm 2 mps 754 mmHg 93%
    22:00 +7°C° 0.6 mm 2 mps 754 mmHg 92%
    23:00 +7°C° 0.6 mm 2 mps 753 mmHg 91%
    Show more